Regional Weather Roundup
Issued by NWS Upton, NY

Current Version | Previous Version | Graphics & Text | Print | Product List | Glossary Off
Versions: 1 2 3 4 5 6 7 8 9 10 11 12 13 14 15 16 17 18 19 20 21 22 23 24 25 26 27

000
ASUS41 KOKX 261005
RWROKX

REGIONAL WEATHER ROUNDUP
NATIONAL WEATHER SERVICE NEW YORK NY
600 AM EDT TUE JUL 26 2016

NOTE: "FAIR" INDICATES FEW OR NO CLOUDS BELOW 12,000 FEET WITH NO
SIGNIFICANT WEATHER AND/OR OBSTRUCTIONS TO VISIBILITY.

NYZ071-072-176-178-NJZ106-104-261100-
NEW YORK CITY METRO AREA

CITY           SKY/WX    TMP DP  RH WIND       PRES   REMARKS
Central Park   CLEAR     72  68  87 NW3       29.92R
LaGuardia APRT PTCLDY    75  68  78 NW12      29.88R
Kennedy INTL   PTCLDY    75  68  78 W8        29.89R
Newark/Liberty PTCLDY    72  68  87 VRB6      29.89R
Bronx Bot Gard   N/A     72  66  83 W10       29.90S
Wall St Helipt SUNNY     73  70  88 SW6       29.90R
Teterboro      CLEAR     71  67  87 NW3       29.88R
$$

NYZ177-179-078>081-261100-
LONG ISLAND NEW YORK

CITY           SKY/WX    TMP DP  RH WIND       PRES   REMARKS
Farmingdale    CLEAR     73  69  87 NW5       29.87R
MacArthur/ISP  PTCLDY    71  69  93 NW7       29.86R
Shirley        CLEAR     71  68  90 NW6       29.87R
Riverhead      NOT AVBL
Westhampton    CLEAR     70  67  90 CALM      29.88R
Southhampton     N/A     72  70  94 N5        29.83R
Bridgehampton    N/A     70  70 100 CALM      29.85R
East Hampton   FAIR      71  69  94 CALM      29.86R
Montauk          N/A     72  70  93 W5        29.87R
$$

NYZ052-065-067-261100-
HUDSON VALLEY

CITY           SKY/WX    TMP DP  RH WIND       PRES   REMARKS
White Plains   CLEAR     70  68  93 W8        29.88R
Newburgh       CLEAR     68  68 100 W9        29.91R
Montgomery     CLEAR     68  67  96 SW6       29.90
Poughkeepsie   CLEAR     71  67  87 CALM      29.87R
Albany         PTCLDY    67  64  90 CALM      29.87R
$$

NJZ001-105-106-008-010-013-015-019>022-104-261100-
NEW JERSEY

CITY           SKY/WX    TMP DP  RH WIND       PRES   REMARKS
Newark/Liberty PTCLDY    72  68  87 VRB6      29.89R
Teterboro      CLEAR     71  67  87 NW3       29.88R
Caldwell       CLEAR     70  68  93 CALM      29.90R
Morristown     FOG       64  63  94 CALM      29.90R VSB 1/4
Somerville     PTCLDY    67  65  93 CALM      29.89R FOG
Linden         FAIR      71  68  90 CALM      29.91R
Sussex         PTCLDY    67  67 100 CALM      29.92R FOG
Abdover          N/A     66  65  96 CALM      29.93R
Trenton        CLEAR     71  69  93 NW3       29.90R
Millville      CLEAR     73  71  93 N6        29.91R
Atlantic City  CLEAR     72  70  93 NW5       29.91R
Wrightstown    CLEAR     72  71  96 W7        29.88R
Toms River     CLEAR     72  71  97 SW5       29.91R FOG
Belmar         CLEAR     72  70  93 W7        29.90R
$$

PAZ047>061-062-071-261100-
EASTERN PENNSYLVANIA

CITY           SKY/WX    TMP DP  RH WIND       PRES   REMARKS
Philadelphia   MOCLDY    75  71  87 W6        29.92R
Allentown      CLEAR     67  65  93 W3        29.93R FOG
Scranton       CLOUDY    69  67  93 SW8       29.95R FOG
$$

CTZ002-004>006-009-010-012-RIZ004-006-007-MAZ004-011-015-261100-
SOUTHERN NEW ENGLAND
 IN CT

CITY           SKY/WX    TMP DP  RH WIND       PRES   REMARKS
Bradley INTL   CLEAR     68  64  87 W6        29.84R
Hartford       CLEAR     73  67  81 S5        29.85R
Danbury        CLEAR     67  65  93 W3        29.89R
Wtrbury/Oxford   N/A     66  63  88 CALM      29.89R
Bridgeport     CLEAR     72  67  84 W5        29.86R
Meriden        CLEAR     67  65  93 CALM      29.86R
New Haven      PTCLDY    70  68  93 W3        29.86R
Chester        FAIR      68  68 100 CALM      29.87R
Groton         CLEAR     71  67  87 CALM      29.84R
Wilimantic     NOT AVBL

 IN RI

CITY           SKY/WX    TMP DP  RH WIND       PRES   REMARKS
Providence     PTCLDY    72  67  84 W10       29.83R
Block Island   MOCLDY    69  69 100 W9        29.86R FOG
Westerly       CLEAR     70  66  87 CALM      29.85R
 IN MA

CITY           SKY/WX    TMP DP  RH WIND       PRES   REMARKS
Boston         CLEAR     77  67  71 W13G18    29.79R
Worchester     CLEAR     69  65  86 W10       29.86R
Westfield      CLEAR     67  65  93 CALM      29.85R
Provincetown   CLEAR     70  68  93 W9        29.79R
Nantucket      CLEAR     70  68  93 W12       29.81R
$$

ANZ330-335-338-340-345-350-353-355-261100-
COASTAL MARINE OBSERVATIONS


STATION/POSITION TIME  SKY/WX   TEMP    WIND        PRES    VSBY  WAVE
                                AIR SEA DIR/SP/G                  HT/PER
                 (UTC)          (F)     (DEG/KT/KT) (MB)    (MI)  (FT/S)
NY HARB ENTRANCE 0850            73 72  280/ 10/ 12 1010.9          2/ 5
20S FIRE ISLAND  0850            74 73  270/ 12/ 14 1010.6          2/ 3
GREAT SOUTH BAY  0915            75 80  300/ 10/ 14   N/A
23 SSW MONTAUK P 0850            71 68  260/ 10/ 10 1011.0          3/ 5
15 E BARNEGAT LI 0922               76                N/A           2/ 6
HUDSON CANYON    0850            77 77              1011.0          3/ 6
KINGS POINT      0900            74 72              1011.4
EXECUTION ROCKS  0900            73     250/  4/  6   N/A
CENTRAL LI SOUND 0930            73 73  270/ 10/ 12   N/A           2/ 4
EASTERN LI SOUND 0900            69 67  260/  6/  6   N/A
ROBBINS REEF     0906            73     280/ 12/ 13 1011.1
$$


>>>>>>>>>>>>>>>>>>>>>>>>>>>> KEY <<<<<<<<<<<<<<<<<<<<<<<<<<<
>                                                          <
>     SKY/WX - Sky Condition/Present Weather               <
>     TMP    - Temperature in Fahrenheit                   <
>     DP     - Dew Point in Fahrenheit                     <
>     RH     - Relative Humidity in Percent                <
>     WIND   - Direction (from) and Speed in MPH           <
>     PRES   - Mean Sea Level Pressure (inches of Hg)      <
>     WCI    - Wind Chill Index                            <
>     VSB    - VISIBILITY IN MILES                         <
>     HX     - HEAT INDEX                                  <
>     TC     - TEMPERATURE IN CELSIUS                      <
>     VRB    - VARIABLE WIND DIRECTION                     <
>                                                          <
>>>>>>>>>>>>>>>>>>>>>>>>>>>> KEY <<<<<<<<<<<<<<<<<<<<<<<<<<<




USA.gov is the U.S. government's official web portal to all federal, state and local government web resources and services.